Theta_e
330 316 312 310 300 298 295 301 308 309 311 316 318 326 326 325 322 316 341 349 357 357 359 360 363 363 363 362 362 361 360 360 360 361 361 361 361 360 360 358 358 355 353 351 351 351 352 353 353
318 315 310 304 295 290 294 304 305 309 315 318 329 330 328 326 333 341 343 355 356 357 358 358 362 362 363 362 361 360 360 360 360 360 361 361 361 359 358 357 355 352 350 349 350 351 351 351 352
320 313 302 298 293 293 295 305 308 312 315 316 320 329 331 329 339 342 351 354 356 356 357 358 362 362 362 362 361 360 360 360 360 360 360 360 360 359 357 355 354 352 348 347 347 348 348 349 349
308 304 302 294 293 299 303 306 310 311 315 319 323 323 332 337 339 347 353 355 354 355 357 361 362 361 362 362 361 360 360 360 360 360 360 360 359 358 356 354 353 352 349 346 345 345 346 346 345
305 299 293 291 294 300 306 308 310 310 314 317 321 325 328 339 347 351 352 352 352 354 358 360 361 362 362 362 361 360 360 359 359 360 360 359 358 357 355 354 353 352 351 348 345 346 346 345 344
298 297 289 290 295 302 305 309 312 311 318 317 327 327 326 343 346 348 349 350 355 355 358 359 362 362 361 361 360 360 359 358 359 359 359 359 358 356 355 354 353 353 352 351 348 348 346 344 343
294 292 290 292 295 299 304 310 308 312 316 317 328 324 325 338 344 347 347 352 354 356 356 358 359 361 363 361 360 359 358 358 358 357 357 357 357 356 354 353 353 353 352 351 350 349 347 345 344
297 293 290 293 296 297 306 307 309 315 317 323 332 323 320 330 343 344 345 350 351 352 355 356 357 359 359 358 361 359 358 358 358 358 357 357 356 355 354 352 352 353 352 351 350 349 348 346 345
298 289 289 292 296 299 307 306 312 319 319 323 330 329 333 335 340 340 345 346 347 348 351 353 355 356 356 357 359 360 360 359 358 358 357 354 349 349 349 349 352 353 352 351 350 349 348 347 347
292 288 291 297 299 299 305 306 307 314 316 318 321 335 339 339 336 340 341 341 343 343 346 351 352 352 353 357 357 357 355 355 354 353 352 348 344 343 347 347 352 353 352 352 350 350 349 347 336
292 290 295 299 301 303 303 304 306 310 309 315 317 329 330 334 332 337 340 342 342 343 345 348 350 351 351 353 352 354 354 354 352 351 349 343 342 342 342 339 344 343 349 342 345 343 342 338 337
290 297 298 300 302 302 302 306 304 307 309 317 320 317 316 317 328 329 331 334 343 342 343 345 347 347 348 351 351 352 352 351 350 349 348 343 338 338 337 337 337 339 340 338 337 337 337 337 337
291 296 299 301 302 302 302 303 302 308 313 311 313 318 312 310 311 317 330 334 343 341 342 343 344 344 345 349 349 350 350 350 349 348 348 345 340 337 337 337 337 339 338 339 335 334 333 334 334
296 297 299 300 299 301 300 301 301 305 310 310 309 310 308 310 311 312 315 324 333 341 340 341 342 342 341 345 345 345 348 348 347 346 346 346 340 337 336 336 336 336 337 338 337 333 332 333 335
298 294 297 299 300 297 300 297 299 305 307 306 306 307 309 310 312 312 313 318 324 338 340 339 341 341 338 340 342 341 342 345 343 344 344 345 342 334 336 336 337 337 338 337 336 332 333 334 336
293 291 290 298 299 300 300 293 300 303 303 304 306 306 308 309 309 309 312 315 324 333 338 340 343 340 336 339 339 337 337 340 340 341 341 343 343 338 333 338 338 339 338 338 336 336 336 334 332
289 286 288 293 299 299 298 294 300 304 302 302 303 304 306 305 306 309 311 313 330 337 338 339 339 338 337 336 343 339 334 335 336 336 338 339 342 343 338 334 339 338 339 338 338 335 334 333 331
287 288 291 291 297 296 294 293 298 302 301 301 301 302 304 305 306 308 310 315 324 332 336 338 336 339 342 340 341 345 344 336 337 338 340 339 341 341 342 340 337 339 338 338 336 335 332 331 334
293 291 291 294 297 295 293 294 298 300 298 298 300 300 301 303 307 308 311 316 323 326 332 335 339 343 347 347 346 344 343 344 345 347 343 344 344 342 340 342 341 342 340 340 337 335 333 332 330
295 292 291 295 298 294 293 294 298 300 299 299 300 300 302 302 305 308 310 314 315 316 319 324 333 342 345 347 347 346 344 347 346 347 346 347 348 346 343 341 341 343 340 339 337 334 333 332 332
295 292 292 293 296 296 293 290 294 298 299 300 301 301 302 303 303 305 310 310 312 316 317 318 320 331 338 340 337 337 338 340 339 343 344 345 345 349 347 346 344 343 341 339 339 338 336 335 337
290 296 296 295 291 285 292 282 289 294 296 298 299 300 301 303 304 305 308 308 313 315 316 317 322 323 325 328 328 328 329 328 333 336 341 340 343 345 346 348 348 346 342 342 342 343 340 337 335
293 297 295 294 289 285 287 283 287 292 293 295 298 299 300 303 305 304 305 310 310 314 317 319 320 322 323 323 322 321 319 323 327 327 329 331 334 337 340 344 343 345 347 347 345 341 335 328 325
299 294 291 288 285 280 286 286 285 290 292 295 299 301 302 302 302 305 307 312 314 315 318 319 319 319 320 321 322 323 322 323 323 322 323 327 328 331 334 337 336 338 340 342 340 329 325 322 322
293 285 279 278 279 280 288 286 287 293 299 300 301 302 301 302 305 308 308 310 310 312 312 313 314 315 317 318 317 319 321 322 321 321 322 322 322 325 329 330 332 336 335 334 329 326 326 324 321
290 287 280 275 277 280 290 285 289 301 303 304 305 303 304 304 306 304 305 307 308 309 311 311 311 313 312 313 313 319 321 320 319 321 322 322 323 325 327 327 330 334 332 333 330 330 331 330 328
295 289 291 285 284 281 285 290 296 303 303 304 304 304 302 302 304 304 303 304 306 308 309 310 310 312 313 313 316 318 320 321 319 321 319 321 321 323 324 324 326 328 331 331 332 331 330 329 326
299 300 289 286 279 277 284 286 287 296 299 301 303 302 301 300 300 301 302 302 303 305 307 310 311 310 311 313 314 315 316 318 318 317 318 317 318 319 319 320 321 322 326 326 325 325 326 324 323
293 292 293 292 290 280 281 287 299 299 301 300 301 304 304 303 301 300 301 304 305 306 308 307 307 308 310 312 311 311 311 316 317 316 317 316 316 316 315 317 319 320 319 323 323 320 320 321 321
296 291 291 285 286 287 283 284 301 301 302 304 301 306 306 305 302 300 301 304 305 307 308 309 308 308 307 309 308 309 311 313 312 313 313 314 314 314 314 315 317 318 319 318 321 322 323 320 320
Wind_Speed
8 6 2 3 3 4 5 9 4 9 9 4 6 5 7 2 4 5 7 16 21 19 13 12 19 21 19 18 17 17 17 16 17 17 17 16 16 16 15 14 14 14 14 13 12 11 11 10 9
4 4 4 1 3 2 6 7 18 13 14 20 4 8 2 1 3 11 13 15 24 19 15 11 18 20 20 18 18 18 18 17 17 17 17 16 15 14 14 13 13 14 13 12 11 10 9 8 7
3 1 3 3 4 8 6 7 12 8 17 18 5 3 2 5 6 13 14 18 19 16 13 12 19 20 19 19 18 18 17 17 16 16 16 15 15 13 12 12 12 12 12 11 10 9 8 7 6
1 4 3 2 9 9 13 11 14 15 21 16 6 5 3 3 14 11 20 20 18 16 15 16 18 19 19 18 17 17 17 17 17 16 16 15 15 13 12 11 11 11 12 11 10 9 7 7 6
3 3 2 4 10 10 12 14 8 14 17 20 3 1 2 4 18 21 21 18 17 15 14 14 18 19 18 18 18 17 17 17 16 16 16 16 14 13 12 12 11 11 11 11 10 8 7 6 5
1 2 2 9 10 14 11 13 8 11 16 0 7 3 4 12 22 16 17 16 15 16 12 11 15 17 18 18 18 18 16 17 17 17 16 16 15 14 13 13 13 12 11 10 10 9 8 8 7
6 4 7 7 6 14 14 4 8 16 4 1 7 3 4 7 11 16 15 15 14 14 13 9 9 13 16 17 18 18 18 17 16 16 16 17 15 14 14 13 13 13 12 12 11 10 10 9 9
5 4 4 6 11 16 9 5 10 13 3 6 3 6 5 9 15 13 14 14 14 13 13 12 9 8 8 10 17 17 18 17 15 15 15 14 15 15 15 13 13 13 13 12 12 11 11 11 11
4 3 10 9 10 10 10 10 12 10 4 5 5 5 4 16 16 15 13 9 10 9 11 12 13 12 11 8 11 15 19 18 18 16 16 12 5 7 11 11 13 13 12 12 12 11 11 11 11
6 6 9 5 8 9 3 12 13 6 6 3 6 4 15 7 19 19 17 15 12 13 13 13 13 12 10 8 9 8 8 8 8 8 9 6 6 6 8 9 13 13 12 12 12 12 12 10 4
5 8 5 14 17 14 12 16 9 7 9 5 18 18 22 30 7 10 10 15 19 17 13 14 15 14 13 9 7 5 6 6 4 6 6 5 5 4 4 3 5 5 12 5 8 6 5 7 5
6 8 13 12 15 11 15 17 8 13 7 10 14 16 8 11 10 11 11 11 12 13 14 15 15 16 17 11 11 11 10 9 7 7 9 6 4 6 6 5 5 5 4 6 5 5 7 7 6
6 12 10 16 17 19 3 15 11 9 6 8 6 14 11 13 11 11 10 7 16 14 13 18 17 14 12 11 8 9 9 8 9 9 11 9 8 8 7 8 7 8 7 8 7 6 6 7 8
6 18 18 12 13 14 11 11 7 8 4 4 8 2 4 6 9 10 8 12 14 16 16 15 16 14 12 13 14 12 10 10 9 9 9 11 8 7 7 7 7 7 7 7 7 8 8 8 8
14 14 10 16 19 11 9 6 9 11 4 3 5 9 8 7 4 6 8 10 13 16 18 18 16 14 15 14 12 9 10 11 10 9 12 12 10 8 8 7 8 9 7 7 5 6 5 5 6
6 6 13 21 13 12 11 13 7 10 7 8 8 6 9 9 8 5 6 7 9 11 16 17 15 17 14 13 8 7 7 8 9 8 7 12 13 10 9 8 8 6 5 5 5 5 5 5 5
4 5 7 7 8 6 8 11 7 10 9 10 8 9 7 8 6 5 7 6 8 13 15 11 9 11 11 8 5 7 8 7 6 5 6 11 12 13 11 10 9 6 6 6 6 6 6 6 5
5 4 5 5 7 6 8 8 8 9 10 11 10 10 9 8 9 8 6 5 9 8 9 10 7 4 5 2 3 3 3 6 5 5 6 7 9 11 11 10 10 6 7 8 5 7 4 5 9
6 5 7 10 5 1 8 8 15 12 6 8 9 9 9 10 9 6 3 6 7 8 10 9 8 8 6 4 4 2 3 2 2 5 10 10 11 11 11 11 10 8 11 13 8 5 7 5 2
9 9 12 11 9 7 7 11 18 17 10 9 9 9 10 7 6 6 7 9 9 10 10 10 8 7 5 4 3 3 2 2 1 3 4 6 9 11 11 13 13 11 7 6 6 6 4 5 6
14 9 14 10 3 1 2 8 3 4 3 5 7 8 7 12 10 7 9 10 8 10 10 10 9 9 6 7 4 4 3 3 3 4 4 5 5 7 8 11 11 12 6 10 9 7 10 11 9
13 9 8 6 2 3 4 5 4 5 7 4 7 9 10 10 8 8 9 8 10 8 5 8 9 9 8 8 6 6 3 2 3 2 3 5 7 7 9 11 10 12 5 10 9 10 11 6 10
12 8 6 4 3 3 2 4 9 2 6 10 9 11 11 14 16 12 11 8 7 8 8 7 9 9 8 8 8 6 3 3 2 2 4 5 6 5 6 6 9 12 10 11 13 11 3 1 0
4 2 7 5 4 3 6 7 6 4 4 6 9 11 10 13 5 8 9 11 10 8 10 9 10 7 8 8 7 8 5 1 3 4 3 4 3 5 5 6 6 8 9 11 6 4 6 6 5
7 8 3 4 5 5 6 4 8 4 10 5 12 17 8 9 13 15 14 12 8 9 8 8 9 7 7 8 7 7 7 6 5 4 3 5 4 4 6 5 5 5 6 6 5 7 7 6 5
2 7 6 6 4 6 4 4 2 8 5 5 14 10 15 11 12 11 9 9 9 8 8 8 8 7 7 6 3 3 2 2 2 1 0 1 2 4 5 5 6 7 6 6 5 5 9 11 10
4 3 5 4 2 3 4 6 4 9 11 12 16 13 11 10 11 11 9 8 8 6 5 5 6 4 4 7 7 6 4 4 2 2 2 1 2 4 7 9 9 7 6 7 8 7 9 9 9
4 2 4 3 1 3 5 4 6 4 5 9 12 10 8 8 8 7 7 8 7 6 6 8 7 8 6 6 4 4 4 3 2 2 3 3 3 2 4 6 7 9 9 7 8 8 10 8 8
6 4 2 3 5 4 1 6 4 8 4 6 8 5 5 4 4 5 7 6 7 7 8 7 6 5 4 5 2 2 3 1 2 2 2 3 3 3 3 3 3 5 6 9 8 10 10 8 8
2 1 3 4 4 4 4 7 1 7 4 5 4 3 1 3 4 3 4 5 5 6 6 7 6 6 5 4 2 2 1 0 3 4 5 4 5 5 5 3 3 4 5 6 9 11 10 12 13
Wind_Direction
307 313 294 26 44 72 245 256 249 288 308 221 250 121 165 145 169 203 150 151 138 145 152 164 143 135 134 134 133 130 126 122 119 117 116 116 117 118 120 122 124 128 129 127 128 132 135 133 129
315 319 33 57 126 203 260 248 259 269 279 304 84 131 346 245 98 120 130 157 143 144 145 158 145 138 138 139 139 137 133 130 130 129 128 127 124 122 125 128 132 133 133 133 138 140 139 136 135
282 198 83 155 193 218 233 230 256 290 303 304 166 32 80 162 106 142 135 144 139 140 140 154 148 143 142 143 145 141 138 137 137 135 133 130 129 131 133 136 136 137 138 140 144 145 145 147 151
341 19 359 169 237 252 235 263 291 306 297 288 111 108 350 227 147 134 137 139 138 139 139 154 149 146 146 144 146 144 143 143 142 140 139 138 140 142 144 143 144 145 147 150 154 158 161 165 176
30 72 216 221 248 259 254 255 265 275 278 279 27 94 78 23 111 129 139 144 141 141 137 151 152 151 149 149 150 150 148 147 146 147 147 147 149 151 152 154 156 158 159 160 164 166 172 182 200
235 125 142 226 252 258 274 272 282 263 267 276 78 68 6 128 127 140 144 142 140 135 128 146 152 153 153 155 155 153 152 152 154 155 156 157 160 162 163 165 166 169 168 170 174 178 185 193 205
149 115 217 205 237 267 259 343 248 262 303 90 109 68 126 148 136 137 142 130 136 133 130 131 149 157 157 159 159 157 156 160 162 164 165 165 167 170 172 175 175 177 180 182 185 190 196 205 217
151 119 242 225 228 263 283 274 263 261 152 350 72 145 210 167 150 134 138 135 136 142 141 147 148 153 159 165 162 163 162 163 167 169 171 174 174 177 182 184 186 186 190 192 194 200 209 213 221
129 199 218 223 219 244 351 305 319 265 123 88 67 53 296 145 142 137 130 131 129 148 152 153 158 164 165 163 173 168 170 172 174 174 177 174 180 189 193 191 194 195 198 204 207 209 217 231 240
162 204 228 239 239 261 281 273 321 340 335 149 70 56 40 339 149 149 157 156 156 162 170 165 162 164 161 168 174 175 182 178 179 177 180 178 180 189 194 201 204 203 206 211 216 220 228 238 239
216 231 216 248 257 259 264 274 276 252 235 200 188 165 154 215 118 130 155 173 174 176 172 178 169 163 164 166 170 177 185 182 187 181 182 175 180 192 210 210 210 206 212 212 219 228 230 223 221
243 235 230 253 256 256 238 261 258 272 200 258 187 113 160 128 146 145 150 159 161 180 189 179 178 177 178 166 172 181 184 185 181 187 183 181 190 204 207 205 208 204 217 219 221 223 230 241 240
221 238 232 233 245 256 241 267 247 259 169 103 60 167 166 152 161 160 157 155 164 180 186 191 184 182 186 172 181 174 183 186 189 190 195 191 197 201 201 209 206 206 204 210 216 215 229 231 235
239 234 246 243 244 246 246 251 178 247 207 135 125 118 190 172 162 149 156 172 167 181 191 190 188 184 187 188 184 181 183 187 191 191 200 203 206 208 216 217 219 224 211 211 218 228 226 232 229
230 259 267 254 252 247 192 266 211 225 190 220 232 174 184 205 220 198 163 181 175 190 185 188 187 186 188 198 190 189 191 182 191 200 195 200 208 210 202 208 218 220 217 217 219 231 243 244 240
202 165 248 260 224 234 149 243 236 244 217 221 246 213 187 199 203 253 263 180 189 160 185 189 188 187 187 195 191 188 190 187 196 199 192 203 206 209 213 216 225 216 209 202 208 218 242 251 244
339 221 214 260 212 186 160 244 224 218 196 233 239 241 206 198 211 226 252 223 180 173 175 186 185 194 187 174 169 203 179 185 195 186 192 207 210 214 217 225 230 197 201 210 219 228 211 231 241
264 280 252 215 262 154 251 242 246 233 197 216 221 236 227 204 211 217 209 199 146 150 157 168 166 175 166 118 183 207 190 209 185 192 193 206 218 217 223 231 231 211 220 221 204 220 201 209 236
263 255 281 295 289 167 248 257 250 232 228 215 221 218 215 198 217 221 192 155 133 125 134 154 172 190 148 152 157 162 212 179 196 197 214 201 204 213 223 236 236 227 229 230 230 199 201 228 220
271 281 283 285 269 166 263 251 233 211 222 192 204 201 195 197 211 218 146 166 166 160 151 146 150 150 168 153 147 139 167 200 230 270 264 233 210 214 222 228 236 228 232 242 227 208 235 228 192
260 252 261 241 257 171 256 321 320 177 197 183 212 201 195 191 201 201 160 184 167 161 164 156 149 140 126 114 93 66 60 38 355 312 299 275 241 247 224 236 239 244 197 223 227 206 211 236 238
241 211 230 253 333 225 108 269 318 308 302 284 237 212 219 214 216 189 181 168 177 180 139 119 123 119 117 118 105 114 128 146 199 232 274 300 309 289 283 271 251 251 229 247 242 226 238 239 248
228 230 226 229 235 60 346 88 272 275 297 275 261 250 221 213 211 200 181 160 130 126 135 124 115 111 121 114 114 117 122 182 201 233 304 302 299 289 269 268 279 273 253 243 249 250 215 245 225
267 77 42 56 80 358 255 141 281 258 226 289 275 260 234 224 168 107 112 127 121 120 118 121 112 107 104 102 111 126 130 295 338 319 325 314 308 309 302 290 284 277 278 260 253 193 157 194 184
65 59 345 339 354 209 277 326 225 294 301 282 286 269 245 136 122 124 123 119 112 115 115 111 115 124 136 141 151 159 162 179 207 253 295 329 326 326 319 318 284 270 274 268 194 187 200 203 209
331 129 150 230 215 258 315 263 267 334 32 84 47 36 77 73 104 103 103 111 122 131 134 133 140 151 170 160 126 79 193 212 222 245 238 318 324 309 305 316 302 304 272 263 230 233 229 230 234
300 64 192 130 46 87 251 300 3 31 12 79 70 26 44 58 70 82 88 97 97 107 127 117 131 123 123 127 118 94 112 116 85 19 0 357 309 330 346 339 341 328 278 259 251 247 255 252 256
139 207 0 23 242 233 276 231 214 38 26 40 64 77 49 51 58 66 72 85 90 94 107 102 99 95 92 90 101 119 126 127 126 63 344 345 328 15 348 335 334 333 329 286 268 259 253 233 228
359 333 129 109 146 189 286 264 182 159 150 98 95 49 54 60 91 94 100 114 109 101 100 98 89 96 99 128 129 78 14 33 167 207 261 285 289 300 304 297 317 312 303 305 271 251 248 231 215
137 291 88 156 237 187 183 258 356 134 146 91 31 80 212 76 68 66 109 142 128 131 144 147 148 141 166 184 138 146 143 301 308 293 279 240 267 286 270 270 266 277 277 291 294 268 254 233 231